{"data":{"norad_id":65960,"epoch":"2026-05-25T04:11:47.224032Z","epoch_age_seconds":70648,"freshness":"FRESH","line1":"1 65960U 25228P   26145.17485213  .00031333  00000+0  76307-3 0  9992","line2":"2 65960  51.8738 309.2255 0005667 223.3567 136.6976 15.40637734 35576","mean_motion":15.40637734,"eccentricity":0.0005667,"inclination_deg":51.8738,"raan_deg":309.2255,"arg_perigee_deg":223.3567,"mean_anomaly_deg":136.6976,"bstar":0.00076307,"rev_number":3557,"period_min":93.467787281913,"perigee_km":440.35972879158,"apogee_km":448.09219497258,"semimajor_km":6822.3629618821,"source":"CELESTRAK","updated_at":"2026-05-25T13:38:05.848347Z"}}